Eau Claire, WI

8:04 AM CST on December 16, 2017 (GMT -0600)
Chippewa Valley Regional

Weather History for KEAU - September, 2012

Change the Weather History Date:

Saturday, September 8, 2012

  Actual Average Record
Temperature  
Mean Temperature 61 °F 64 °F  
Max Temperature 75 °F 75 °F 98 °F (1931)
Min Temperature 47 °F 52 °F 38 °F (1995)
Degree Days  
Heating Degree Days 4 4  
Month to date heating degree days 9 24  
Since 1 July heating degree days 34 63  
Cooling Degree Days 0 2  
Month to date cooling degree days 42 23  
Year to date cooling degree days 815 550  
Growing Degree Days 10 (Base 50)    
Moisture  
Dew Point 48 °F    
Average Humidity 66    
Maximum Humidity 93    
Minimum Humidity 38    
Precipitation  
Precipitation 0.16 in 0.13 in 2.52 in (1938)
Month to date precipitation 0.69 1.00  
Year to date precipitation 19.85 23.12  
Snow  
Snow 0.00 in 0.00 in 0.00 in ()
Month to date snowfall 0.0 0.0  
Since 1 July snowfall 0.0 0.0  
Since 1 September snowfall 0.0 0.0  
Snow Depth 0.00 in    
Sea Level Pressure  
Sea Level Pressure 29.88 in    
Wind  
Wind Speed 10 mph (WNW)    
Max Wind Speed 23 mph    
Max Gust Speed 35 mph    
Visibility 9 miles    
Events Rain , Thunderstorm    
T = Trace of Precipitation, MM = Missing Value Source: NWS Daily Summary

Daily Weather History Graph

Daily Weather History Graph

Search for Another Location

Airport or City:

Trip Planner

Search our weather history database for the weather conditions in past years. The results will help you decide how hot, cold, wet, or windy it might be!

Date:

Astronomy

Sep. 08, 2012 Rise Set
Actual Time 6:37 AM CDT 7:28 PM CDT
Civil Twilight 6:07 AM CDT 7:58 PM CDT
Nautical Twilight 5:31 AM CDT 8:33 PM CDT
Astronomical Twilight 4:54 AM CDT 9:10 PM CDT
Moon 11:56 PM CDT (9/8) 2:37 PM CDT (9/8)
Length of Visible Light 13h 51m
Length of Day
12h 51m
Waning Gibbous, 48% of the Moon is Illuminated
Sep 8
Waning Gibbous
Sep 15
New
Sep 22
First Quarter
Sep 29
Full
Oct 8
Last Quarter

Hourly Weather History & Observations

Time (CDT) Temp. Dew Point Humidity Pressure Visibility Wind Dir Wind Speed Gust Speed Precip Events Conditions
12:56 AM 50.0 °F 45.0 °F 83% 29.97 in 10.0 mi WNW 4.6 mph - N/A   Clear
1:56 AM 51.1 °F 46.0 °F 83% 29.96 in 10.0 mi WNW 5.8 mph - N/A   Clear
2:56 AM 50.0 °F 46.0 °F 86% 29.97 in 10.0 mi WNW 6.9 mph - N/A   Clear
3:56 AM 48.9 °F 45.0 °F 86% 29.97 in 10.0 mi WNW 8.1 mph - N/A   Clear
4:56 AM 48.0 °F 45.0 °F 89% 29.97 in 10.0 mi WNW 8.1 mph - N/A   Clear
5:56 AM 46.9 °F 45.0 °F 93% 29.96 in 10.0 mi West 5.8 mph - N/A   Clear
6:56 AM 46.9 °F 45.0 °F 93% 29.97 in 10.0 mi West 4.6 mph - N/A   Clear
7:56 AM 50.0 °F 46.9 °F 89% 29.96 in 10.0 mi West 6.9 mph - N/A   Clear
8:56 AM 54.0 °F 48.0 °F 80% 29.95 in 10.0 mi WSW 8.1 mph - N/A   Clear
9:56 AM 57.9 °F 48.9 °F 72% 29.93 in 10.0 mi WSW 11.5 mph - N/A   Clear
10:56 AM 64.0 °F 46.9 °F 54% 29.90 in 10.0 mi West 15.0 mph 24.2 mph N/A   Clear
11:56 AM 66.9 °F 46.0 °F 47% 29.86 in 10.0 mi WSW 12.7 mph 21.9 mph N/A   Clear
12:56 PM 70.0 °F 45.0 °F 41% 29.83 in 10.0 mi West 12.7 mph - N/A   Clear
1:56 PM 71.1 °F 45.0 °F 39% 29.79 in 10.0 mi WSW 13.8 mph 26.5 mph N/A   Partly Cloudy
2:56 PM 73.9 °F 46.0 °F 37% 29.76 in 10.0 mi WSW 18.4 mph 23.0 mph 0.00 in   Scattered Clouds
3:35 PM 73.4 °F 44.6 °F 36% 29.71 in 10.0 mi WSW 19.6 mph 29.9 mph N/A Thunderstorm Scattered Clouds
3:47 PM 64.4 °F 50.0 °F 59% 29.76 in 2.0 mi NNW 19.6 mph 34.5 mph 0.14 in Rain , Thunderstorm Heavy Rain
3:50 PM 62.6 °F 51.8 °F 68% 29.77 in 2.0 mi NNW 9.2 mph 34.5 mph 0.15 in Rain , Thunderstorm Heavy Thunderstorms and Rain
3:56 PM 61.0 °F 53.1 °F 75% 29.78 in 5.0 mi NW 12.7 mph 24.2 mph 0.16 in Rain , Thunderstorm Light Thunderstorms and Rain
4:24 PM 62.6 °F 55.4 °F 77% 29.79 in 10.0 mi North 8.1 mph 18.4 mph 0.00 in   Overcast
4:56 PM 66.9 °F 55.0 °F 66% 29.80 in 10.0 mi North 12.7 mph 19.6 mph 0.00 in   Clear
5:56 PM 64.0 °F 46.9 °F 54% 29.85 in 10.0 mi North 15.0 mph 26.5 mph N/A   Mostly Cloudy
6:56 PM 60.1 °F 48.0 °F 64% 29.88 in 10.0 mi NW 12.7 mph 23.0 mph N/A   Partly Cloudy
7:56 PM 57.0 °F 48.0 °F 72% 29.90 in 10.0 mi NNW 8.1 mph - N/A   Clear
8:56 PM 57.0 °F 48.9 °F 74% 29.93 in 10.0 mi NNW 3.5 mph - N/A   Overcast
9:56 PM 57.2 °F 48.2 °F 72% 29.94 in 10.0 mi NNW 11.5 mph - N/A   Overcast
11:56 PM 55.9 °F 48.9 °F 77% 29.98 in 10.0 mi NNW 8.1 mph - N/A   Overcast